• In Austria
  • List of Countries
  • For 7 days
  • Water Temperature
  • Satellite Maps
  • Weather Map
  • News
  • Weather Widgets
  • user-avatar
    Login

    Hourly Weather Lincoln

    Today, 23 January, Tuesday

    Time Temperature Precipitation Wind Pressure Humidity
    00:00 +3°C° 0 mm 4 mps 756 mmHg 89%
    01:00 +2°C° 0 mm 5 mps 756 mmHg 90%
    02:00 +2°C° 0 mm 5 mps 756 mmHg 91%
    03:00 +2°C° 0 mm 5 mps 755 mmHg 92%
    04:00 +3°C° 0 mm 6 mps 755 mmHg 92%
    05:00 +3°C° 0 mm 6 mps 754 mmHg 93%
    06:00 +4°C° 0 mm 6 mps 754 mmHg 94%
    07:00 +5°C° 0.2 mm 7 mps 753 mmHg 93%
    08:00 +6°C° 0.2 mm 8 mps 753 mmHg 93%
    09:00 +7°C° 0.2 mm 8 mps 752 mmHg 92%
    10:00 +9°C° 0.1 mm 8 mps 752 mmHg 89%
    11:00 +10°C° 0.1 mm 9 mps 751 mmHg 87%
    12:00 +10°C° 0 mm 8 mps 751 mmHg 85%
    13:00 +11°C° 0 mm 9 mps 751 mmHg 84%
    14:00 +11°C° 0 mm 9 mps 751 mmHg 82%
    15:00 +11°C° 0 mm 9 mps 750 mmHg 80%
    16:00 +10°C° 0 mm 9 mps 751 mmHg 81%
    17:00 +10°C° 0 mm 9 mps 751 mmHg 82%
    18:00 +9°C° 0 mm 8 mps 751 mmHg 83%
    19:00 +9°C° 0 mm 8 mps 751 mmHg 83%
    20:00 +8°C° 0 mm 7 mps 752 mmHg 83%
    21:00 +8°C° 0 mm 7 mps 752 mmHg 83%
    22:00 +8°C° 0 mm 7 mps 752 mmHg 85%
    23:00 +6°C° 0 mm 7 mps 752 mmHg 87%

    Tomorrow, 24 January, Wednesday

    Time Temperature Precipitation Wind Pressure Humidity
    00:00 +6°C° 0 mm 7 mps 751 mmHg 88%
    01:00 +7°C° 0 mm 8 mps 751 mmHg 87%
    02:00 +7°C° 0 mm 8 mps 750 mmHg 86%
    03:00 +8°C° 0 mm 9 mps 749 mmHg 85%
    04:00 +8°C° 0 mm 10 mps 747 mmHg 84%
    05:00 +9°C° 0 mm 11 mps 746 mmHg 83%
    06:00 +9°C° 0 mm 12 mps 744 mmHg 82%
    07:00 +9°C° 0.5 mm 13 mps 743 mmHg 81%
    08:00 +10°C° 0.5 mm 13 mps 742 mmHg 80%
    09:00 +10°C° 0.5 mm 14 mps 742 mmHg 80%
    10:00 +9°C° 1.2 mm 12 mps 742 mmHg 77%
    11:00 +7°C° 1.2 mm 11 mps 743 mmHg 74%
    12:00 +6°C° 1.2 mm 9 mps 744 mmHg 71%
    13:00 +6°C° 0 mm 9 mps 744 mmHg 70%
    14:00 +6°C° 0 mm 8 mps 744 mmHg 68%
    15:00 +6°C° 0 mm 8 mps 745 mmHg 66%
    16:00 +6°C° 0 mm 8 mps 745 mmHg 69%
    17:00 +5°C° 0 mm 8 mps 745 mmHg 71%
    18:00 +5°C° 0 mm 8 mps 746 mmHg 74%
    19:00 +4°C° 0 mm 8 mps 746 mmHg 74%
    20:00 +4°C° 0 mm 7 mps 746 mmHg 75%
    21:00 +4°C° 0 mm 7 mps 747 mmHg 75%
    22:00 +3°C° 0 mm 7 mps 747 mmHg 75%
    23:00 +2°C° 0 mm 8 mps 747 mmHg 75%

    Day after tomorrow, 25 January, Thursday

    Time Temperature Precipitation Wind Pressure Humidity
    00:00 +2°C° 0 mm 8 mps 747 mmHg 76%
    01:00 +3°C° 0 mm 7 mps 747 mmHg 76%
    02:00 +3°C° 0 mm 7 mps 747 mmHg 77%
    03:00 +3°C° 0 mm 7 mps 747 mmHg 78%
    04:00 +3°C° 0 mm 7 mps 747 mmHg 79%
    05:00 +2°C° 0 mm 7 mps 747 mmHg 79%
    06:00 +2°C° 0 mm 6 mps 747 mmHg 80%
    07:00 +2°C° 0 mm 7 mps 747 mmHg 80%
    08:00 +2°C° 0 mm 7 mps 747 mmHg 80%
    09:00 +2°C° 0 mm 7 mps 748 mmHg 80%
    10:00 +3°C° 0 mm 7 mps 747 mmHg 75%
    11:00 +4°C° 0 mm 8 mps 747 mmHg 71%
    12:00 +5°C° 0 mm 8 mps 747 mmHg 66%
    13:00 +5°C° 0 mm 7 mps 747 mmHg 66%
    14:00 +5°C° 0 mm 7 mps 747 mmHg 66%
    15:00 +5°C° 0 mm 7 mps 747 mmHg 66%
    16:00 +5°C° 0 mm 7 mps 747 mmHg 69%
    17:00 +4°C° 0 mm 7 mps 747 mmHg 72%
    18:00 +3°C° 0 mm 7 mps 747 mmHg 75%
    19:00 +3°C° 0 mm 6 mps 747 mmHg 77%
    20:00 +3°C° 0 mm 6 mps 747 mmHg 80%
    21:00 +2°C° 0 mm 6 mps 748 mmHg 82%
    22:00 +2°C° 0 mm 6 mps 748 mmHg 84%
    23:00 +2°C° 0 mm 5 mps 748 mmHg 85%

    26 January, Friday

    Time Temperature Precipitation Wind Pressure Humidity
    00:00 +2°C° 0 mm 5 mps 749 mmHg 87%
    01:00 +1°C° 0 mm 5 mps 749 mmHg 88%
    02:00 +1°C° 0 mm 5 mps 750 mmHg 89%
    03:00 +1°C° 0 mm 4 mps 750 mmHg 89%
    04:00 +1°C° 0 mm 4 mps 751 mmHg 89%
    05:00 +1°C° 0 mm 4 mps 752 mmHg 89%
    06:00 +1°C° 0 mm 5 mps 753 mmHg 89%
    07:00 +1°C° 0 mm 5 mps 754 mmHg 88%
    08:00 +1°C° 0 mm 5 mps 755 mmHg 87%
    09:00 +1°C° 0 mm 5 mps 755 mmHg 86%
    10:00 +2°C° 0 mm 5 mps 756 mmHg 82%
    11:00 +3°C° 0 mm 5 mps 757 mmHg 78%
    12:00 +5°C° 0 mm 5 mps 758 mmHg 75%
    13:00 +5°C° 0 mm 5 mps 758 mmHg 74%
    14:00 +5°C° 0 mm 5 mps 759 mmHg 74%
    15:00 +5°C° 0 mm 4 mps 759 mmHg 74%
    16:00 +4°C° 0 mm 4 mps 760 mmHg 78%
    17:00 +3°C° 0 mm 3 mps 760 mmHg 81%
    18:00 +3°C° 0 mm 3 mps 761 mmHg 84%
    19:00 +2°C° 0 mm 3 mps 761 mmHg 86%
    20:00 +3°C° 0 mm 2 mps 762 mmHg 87%
    21:00 +2°C° 0 mm 2 mps 762 mmHg 88%
    22:00 +2°C° 0 mm 2 mps 763 mmHg 89%
    23:00 +2°C° 0 mm 2 mps 763 mmHg 89%

    27 January, Saturday

    Time Temperature Precipitation Wind Pressure Humidity
    00:00 +1°C° 0 mm 2 mps 763 mmHg 90%
    01:00 +1°C° 0 mm 2 mps 763 mmHg 90%
    02:00 +1°C° 0 mm 2 mps 764 mmHg 90%
    03:00 +1°C° 0 mm 2 mps 764 mmHg 90%
    04:00 +1°C° 0 mm 2 mps 764 mmHg 90%
    05:00 0°C° 0 mm 3 mps 764 mmHg 89%
    06:00 0°C° 0 mm 3 mps 764 mmHg 89%
    07:00 -1°C° 0 mm 4 mps 764 mmHg 87%
    08:00 0°C° 0 mm 4 mps 764 mmHg 84%
    09:00 +1°C° 0 mm 5 mps 764 mmHg 82%
    10:00 +2°C° 0 mm 5 mps 764 mmHg 81%
    11:00 +3°C° 0 mm 6 mps 764 mmHg 81%
    12:00 +4°C° 0 mm 7 mps 764 mmHg 80%
    13:00 +4°C° 0.2 mm 7 mps 763 mmHg 83%
    14:00 +5°C° 0.2 mm 7 mps 763 mmHg 85%
    15:00 +5°C° 0.2 mm 7 mps 762 mmHg 88%
    16:00 +6°C° 0.1 mm 7 mps 762 mmHg 89%
    17:00 +6°C° 0.1 mm 7 mps 762 mmHg 90%
    18:00 +6°C° 0.1 mm 7 mps 762 mmHg 91%
    19:00 +8°C° 0 mm 7 mps 762 mmHg 91%
    20:00 +8°C° 0 mm 6 mps 763 mmHg 92%
    21:00 +8°C° 0 mm 6 mps 763 mmHg 92%
    22:00 +8°C° 0 mm 6 mps 763 mmHg 91%
    23:00 +9°C° 0 mm 6 mps 764 mmHg 91%

    28 January, Sunday

    Time Temperature Precipitation Wind Pressure Humidity
    00:00 +9°C° 0 mm 6 mps 764 mmHg 90%
    01:00 +9°C° 0 mm 6 mps 764 mmHg 90%
    02:00 +9°C° 0 mm 6 mps 764 mmHg 90%
    03:00 +9°C° 0 mm 6 mps 765 mmHg 89%
    04:00 +9°C° 0 mm 6 mps 765 mmHg 90%
    05:00 +9°C° 0 mm 5 mps 765 mmHg 90%
    06:00 +8°C° 0 mm 5 mps 765 mmHg 90%
    07:00 +8°C° 0 mm 5 mps 766 mmHg 90%
    08:00 +8°C° 0 mm 5 mps 766 mmHg 90%
    09:00 +8°C° 0 mm 5 mps 767 mmHg 90%
    10:00 +9°C° 0 mm 5 mps 767 mmHg 87%
    11:00 +11°C° 0 mm 6 mps 767 mmHg 83%
    12:00 +13°C° 0 mm 6 mps 767 mmHg 80%
    13:00 +13°C° 0 mm 6 mps 767 mmHg 80%
    14:00 +13°C° 0 mm 5 mps 767 mmHg 80%
    15:00 +13°C° 0 mm 5 mps 767 mmHg 80%
    16:00 +12°C° 0 mm 5 mps 767 mmHg 83%
    17:00 +10°C° 0 mm 5 mps 768 mmHg 85%
    18:00 +8°C° 0 mm 4 mps 768 mmHg 88%
    19:00 +8°C° 0 mm 4 mps 768 mmHg 88%
    20:00 +8°C° 0 mm 4 mps 768 mmHg 89%
    21:00 +8°C° 0 mm 4 mps 769 mmHg 89%
    22:00 +7°C° 0 mm 4 mps 769 mmHg 90%
    23:00 +7°C° 0 mm 5 mps 768 mmHg 90%
    Show more